Back to catalog

SL-8 DEB

AlivePO
NORAD 29284·DEBRIS·🇷🇺 Russia

Launched Dec 17, 1981 from Plesetsk Cosmodrome

Loading…

Next Passes (next 24 hours)

TLE

FreshSource: Space-Track

Epoch: Sep 14, 2026, 08:04 UTC

1 29284U 81120N   26257.33621734 -.00000052  00000-0 -73498-3 0  9991
2 29284  82.9540  89.2242 0035732 346.8790 188.5334 12.02519464557237

Track SL-8 DEB in real time with AllMySat

Download on the App Store